Location: Athens-Covington-Pier
(33.9360°N, 83.4200°W)
Time: 05:36:38
(UTC-04:00)

N. Korean satellite - Visible Passes

Search period start: 19 October 2019 00:00
Search period end: 29 October 2019 00:00
Orbit: 455 x 508 km, 97.2° (Epoch: 18 October)

Date Brightness Start Highest point End Pass type
(mag) Time Alt. Az. Time Alt. Az. Time Alt. Az.
19 Oct 10.0 19:40:39 10° SW 19:42:39 15° W 19:44:40 10° WNW visible
20 Oct 7.7 07:08:55 10° NNE 07:12:27 50° E 07:16:02 10° S visible
20 Oct 8.6 19:14:08 10° SSW 19:17:15 33° W 19:20:23 10° NNW visible
21 Oct 9.5 06:44:12 10° NE 06:47:06 22° E 06:50:01 10° SSE visible
22 Oct 10.6 06:21:09 10° E 06:21:41 10° E 06:22:12 10° E visible
23 Oct 9.8 19:32:17 10° SW 19:34:46 19° W 19:37:16 10° NW visible
24 Oct 8.3 07:01:11 10° NNE 07:04:38 39° E 07:08:06 10° SSE visible
25 Oct 9.9 06:36:41 10° NE 06:39:15 18° E 06:41:49 10° SE visible
26 Oct 10.4 19:51:26 10° WSW 19:52:17 11° W 19:53:10 10° WNW visible
27 Oct 7.0 07:18:25 10° NNE 07:22:06 72° ESE 07:25:47 10° S visible
27 Oct 9.3 19:24:00 10° SSW 19:26:50 24° W 19:29:42 10° NW visible
28 Oct 8.8 06:53:27 10° NE 06:56:45 30° E 07:00:04 10° SSE visible
